Regional Weather Roundup
Issued by NWS

Home | Current Version | Previous Version | Text Only | Print | Product List | Glossary On
Versions: 1 2 3 4 5 6 7 8 9 10 11 12 13 14 15 16 17 18 19 20 21 22 23 24 25 26 27 28 29 30 31 32 33 34 35 36 37 38 39 40 41 42 43 44 45 46 47 48 49 50
000
ASUS44 KEWX 300902
RWRTX
SOUTH TEXAS REGIONAL WEATHER ROUNDUP
NATIONAL WEATHER SERVICE AUSTIN/SAN ANTONIO TX
300 AM CST FRI JAN 30 2015

NOTE: "FAIR" INDICATED FEW OR NO CLOUDS BELOW 12,000 FEET WITH NO
SIGNIFICANT WEATHER AND/OR OBSTRUCTIONS TO VISIBILITY.

* - THESE STATIONS ARE NOT NWS OR FAA STATIONS...AND ARE NOT SUBJECT
    TO NWS AND FAA QUALITY CONTROL.

TXZ171-172-183>190-301000-
TEXAS HILL COUNTRY AND EDWARDS PLATEAU

CITY           SKY/WX    TMP DP  RH WIND       PRES   REMARKS
JUNCTION       CLOUDY    49  32  52 NE9       30.42R WCI  45
*LLANO         CLOUDY    52  32  46 NE9       30.45F
BURNET           N/A    N/A N/A N/A MISG      30.42F
*HORSESHOE BAY RAIN      50  34  53 N5        30.42S WCI  49
*KERRVILLE     CLOUDY    51  34  51 NE9       30.40S
*FREDERICKSBRG CLOUDY    48  34  59 N5        30.41R WCI  46
*ROCKSPRINGS   CLOUDY    48  34  57 NE9       30.40S WCI  44
*BOERNE STAGE  MOCLDY    52  32  46 N8        30.39S
*CASTROVILLE   MOCLDY    56  35  45 NE12      30.38R
HONDO          CLOUDY    55  36  48 NE14      30.38R
*UVALDE        CLOUDY    55  42  60 E6        30.36S
DEL RIO        CLOUDY    59  37  44 N5        30.36R
LAUGHLIN AFB   CLOUDY    57  39  50 NE5       30.36R
CARRIZO SPRGS  CLOUDY    59  52  77 NE5       30.33S
$$

TXZ173-191>194-202-209-217>225-228-301000-
CENTRAL AND SOUTH CENTRAL TEXAS

CITY           SKY/WX    TMP DP  RH WIND       PRES   REMARKS
GEORGETOWN     CLOUDY    52  34  50 N14G21    30.41F
AUSTIN/BERGSTM CLOUDY    53  34  48 N26       30.39S
AUSTIN/MABRY   CLOUDY    53  33  46 N10G22    30.41S
*AUSTIN/EXEC   CLOUDY    50  34  53 N22       30.40F WCI  43
*LAGO VISTA    CLOUDY    51  34  53 NE10G20   30.39F
SAN MARCOS     PTCLDY    52  36  54 NE10      30.38F
NEW BRAUNFELS  MOCLDY    55  35  47 N10       30.37R
RANDOLPH AFB   CLOUDY    55  34  44 NE13      30.36S
PT SAN ANTONIO MOCLDY    56  36  46 NE12      30.34S
SAN ANTONIO    MOCLDY    56  35  45 N15       30.37R
STINSON FIELD  PTCLDY    57  35  43 NE10      30.35R
*PLEASANTON    CLOUDY    58  37  45 NE12G17   30.36S
*LA GRANGE     MOCLDY    56  38  52 N12G20    30.36R
*GIDDINGS      CLOUDY    53  35  51 N9G17     30.41F
*GONZALES      NOT AVBL
$$

TXZ163>164-176>182-195>201-210>213-226-227-235-301000-
SOUTHEAST TEXAS

CITY           SKY/WX    TMP DP  RH WIND       PRES   REMARKS
COLLEGE STN    MOCLDY    51  34  52 N14       30.39S
*BRYAN         MOCLDY    49  35  57 N9        30.40S WCI  45
*CALDWELL      MOCLDY    52  32  46 N10G16    30.43R
*CROCKETT      MOCLDY    48  37  66 N9        30.43S WCI  44
*BRENHAM       MOCLDY    55  38  54 N10       30.38S
HUNTSVILLE     PTCLDY    49  35  58 VRB3      30.38R
CONROE         CLEAR     52  37  56 N7        30.37R
HOUSTON BUSH   CLEAR     56  42  59 N10       30.35R
HOUSTON HOBBY  PTCLDY    59  42  53 N15       30.33R
*HOUSTON SW AP CLEAR     55  41  59 N6        30.34R
PEARLAND       CLEAR     60  42  51 NE14      30.34R
HOUSTON HOOKS  PTCLDY    55  40  56 N10G17    30.35S
ELLINGTON FLD  MOCLDY    61  45  55 N14       30.34R
SUGAR LAND     PTCLDY    59  42  53 N9        30.33S
*HOUSTON EXEC  CLOUDY    55  39  54 N10       30.36S
*CLEVELAND MUN   N/A     54  43  66 N6        30.36R
*WHARTON       CLEAR     56  45  64 N12       30.34R
*COLUMBUS      FAIR      56  39  53 N8G17     30.34S
$$

TXZ214>216-236>238-301000-
THE UPPER TEXAS COAST

CITY           SKY/WX    TMP DP  RH WIND       PRES   REMARKS
*ORANGE        PTCLDY    55  45  69 N6        30.34R
PORT ARTHUR    PTCLDY    56  43  61 N14       30.31R
GALVESTON      PTCLDY    59  50  72 N15       30.33R
ANGLETON       PTCLDY    55  48  77 N9        30.31R
*BAY CITY      PTCLDY    60  51  72 NE13      30.31R
PALACIOS       CLOUDY    56  51  84 N9        30.31S
$$

TXZ229>234-239>247-301000-
TEXAS COASTAL BEND AND RIO GRANDE PLAINS

CITY           SKY/WX    TMP DP  RH WIND       PRES   REMARKS
VICTORIA       PTCLDY    55  47  74 N7        30.33S
*BEEVILLE      CLEAR     60  46  61 N13       30.32S
ROCKPORT       MOCLDY    60  58  92 N8        30.30R
*PORT ARANSAS  PTCLDY    58  58  99 N3        30.28F
*PORT LAVACA   PTCLDY    56  49  78 N12       30.32S
*INGLESIDE     MOCLDY    54  53  97 N6        30.29S
CORPUS CHRISTI MOCLDY    58  57  97 N7        30.29S
CORPUS NAS     MOCLDY    58  58 100 N7        30.28F FOG
*ROBSTOWN      NOT AVBL
ALICE          CLOUDY    59  57  93 N7        30.30R FOG
KINGSVILLE NAS FOG       57  57 100 N7        30.29S VSB 1/2
COTULLA        CLOUDY    62  42  47 E12       30.34R
*FAITH RANCH   CLOUDY    63  50  63 E14       30.32S
LAREDO         CLOUDY    61  58  90 NE8       30.32R
$$

TXZ248>255-301000-
DEEP SOUTH TEXAS

CITY           SKY/WX    TMP DP  RH WIND       PRES   REMARKS
BROWNSVILLE    MOCLDY    61  60  97 E3        30.26S FOG
PORT ISABEL    FOG       61  60  97 SE3       30.25S VSB 1/2
*SOUTH PADRE   CLEAR     61  61 100 CALM      30.25F
HARLINGEN      FOG       58  57  97 SE5       30.25S VSB 1/4
*HEBBRONVILLE  HVY RAIN  59  59  98 CALM      30.30S VSB 1/4
MCALLEN        PTCLDY    64  62  93 SE7       30.26F
*WESLACO       PTCLDY    62  60  93 CALM      30.26S
FALFURRIAS     CLOUDY    58  56  96 CALM      30.29R VSB 1/2
EDINBURG       FOG       59  57  92 CALM      30.27F VSB 1/4
*ZAPATA        PTCLDY    61  61 100 CALM      30.28S
$$

TXZ213>215-236>238-242>244-246-247-251-254-255-301000-
CMAN STATIONS

STATION/POSITION TIME  TEMP    WIND        PRES    WAVE
                       AIR SEA DIR/SP/G            HT/PER
                 (UTC) (F)     (DEG/KT/KT) (MB)    (FT/S)
SABINE PASS      0800   58 57   20/ 14/ 16 1026.2
SEA RIM ST PARK  0800   60      20/ 11/ 14 1026.4
NORTH JETTY/GLS  0800   60 59   50/ 17/ 19   N/A
EAGLE POINT      0800   60 57   30/ 11/ 17 1026.8
MORGANS POINT    0800   60      30/  4/ 10 1026.9
MISSION/ARANSAS  0800   58     VRB  7      1026.0
PORT O`CONNOR    0800          340/ 11/ 12   N/A
PORT ARANSAS     0800   62 62  360/  4/  4 1026.2
MALAQUITE BEACH  0800   63 65  360/  5/  5 1024.8
BAFFIN BAY       0800   63      60/  5/  5 1025.2
PORT ISABEL      0800   63 61   60/  3/  5 1024.4
$$

GMZ080-GMZ150>470-301000-
OFFSHORE BUOY REPORTS

STATION/POSITION TIME  TEMP    WIND        PRES    WAVE
                       AIR SEA DIR/SP/G            HT/PER
                 (UTC) (F)     (DEG/KT/KT) (MB)    (FT/S)
20 E GALVESTON   0900   60 58   20/ 16/ 17 1025.5    2/ 5
90 E PT ARANSAS  0900   63 65  340/  4/  4 1025.5    1/ 5
35 NE PT MANSFLD 0900   68 69   60/  6/  8 1024.7    2/ 5
200 E PT ISABEL  0900   70 72   80/  6/  8 1024.0    1/ 5
$$



USA.gov is the U.S. government's official web portal to all federal, state and local government web resources and services.